This is the latest recevied weather packets stored in our database for station/object KO4APQ. If no packets are shown the sender has not sent any weather packets the latest 10 day(s).
| Time | Temp. | Humidity | Pressure | Rain* | Wind** | Luminosity | Snow |
|---|---|---|---|---|---|---|---|
| 1777676853 | 17.22° C | 62% | 1012.1 hPa | 0 mm | - | 77 W/m² | - |
| 1777676552 | 17.78° C | 62% | 1012.2 hPa | 0 mm | - | 89 W/m² | - |
| 1777676249 | 17.78° C | 61% | 1012.3 hPa | 0 mm | - | 104 W/m² | - |
| 1777675946 | 17.78° C | 60% | 1012.2 hPa | 0 mm | - | 105 W/m² | - |
| 1777675641 | 17.78° C | 58% | 1012.1 hPa | 0 mm | - | 119 W/m² | - |
| 1777675339 | 17.78° C | 57% | 1012.1 hPa | 0 mm | - | 145 W/m² | - |
| 1777675035 | 18.33° C | 57% | 1012 hPa | 0 mm | - | 166 W/m² | - |
| 1777674732 | 18.33° C | 58% | 1012.2 hPa | 0 mm | - | 206 W/m² | - |
| 1777674429 | 17.78° C | 59% | 1012 hPa | 0 mm | - | 184 W/m² | - |
| 1777674126 | 17.78° C | 57% | 1012.2 hPa | 0 mm | - | 182 W/m² | - |
| 1777673822 | 17.78° C | 59% | 1012.4 hPa | 0 mm | - | 162 W/m² | - |
| 1777673519 | 17.78° C | 58% | 1012.7 hPa | 0 mm | - | 140 W/m² | - |
| 1777673217 | 18.33° C | 58% | 1012.8 hPa | 0 mm | - | 127 W/m² | - |
| 1777672914 | 18.33° C | 58% | 1012.6 hPa | 0 mm | - | 131 W/m² | - |
| 1777672611 | 18.33° C | 56% | 1012.8 hPa | 0 mm | - | 153 W/m² | - |
| 1777672306 | 18.33° C | 53% | 1012.4 hPa | 0 mm | - | 193 W/m² | - |
| 1777672001 | 18.33° C | 52% | 1012.7 hPa | 0 mm | - | 240 W/m² | - |
| 1777671696 | 18.89° C | 55% | 1012.6 hPa | 0 mm | - | 250 W/m² | - |
| 1777671394 | 18.89° C | 55% | 1012.9 hPa | 0 mm | - | 262 W/m² | - |
| 1777671090 | 18.89° C | 53% | 1013 hPa | 0 mm | - | 298 W/m² | - |
| 1777670787 | 18.89° C | 56% | 1012.8 hPa | 0 mm | - | 278 W/m² | - |
| 1777670483 | 18.89° C | 54% | 1013 hPa | 0 mm | - | 254 W/m² | - |
| 1777670180 | 18.89° C | 55% | 1013.1 hPa | 0 mm | - | 250 W/m² | - |
| 1777669878 | 18.89° C | 53% | 1013.1 hPa | 0 mm | - | 297 W/m² | - |
| 1777669574 | 18.89° C | 51% | 1013.3 hPa | 0 mm | - | 345 W/m² | - |
* Rain latest hour (hover to see other rain measurements)
** Current wind speed in m/s (hover to see current wind gust speed)